Time,TemperatureF,DewpointF,PressureIn,WindDirection,WindDirectionDegrees,WindSpeedMPH,WindSpeedGustMPH,Humidity,HourlyPrecipIn,Conditions,Clouds,dailyrainin,SoftwareType,DateUTC
2013-09-13 00:08:00,60.4,59.8,29.69,South,180,0.0,-999.0,98,-99.99,,,0.00,Acu-Link.com,2013-09-13 07:08:00,
2013-09-13 00:23:00,59.9,59.3,29.68,SW,225,0.0,-999.0,98,-99.99,,,0.00,Acu-Link.com,2013-09-13 07:23:00,
2013-09-13 00:38:00,59.5,58.9,29.68,SW,225,0.0,-999.0,98,-99.99,,,0.00,Acu-Link.com,2013-09-13 07:38:00,
2013-09-13 00:53:00,59.2,58.6,29.68,SW,225,0.0,-999.0,98,-99.99,,,0.00,Acu-Link.com,2013-09-13 07:53:00,
2013-09-13 01:09:00,58.8,58.2,29.67,ESE,112,0.0,-999.0,98,-99.99,,,0.00,Acu-Link.com,2013-09-13 08:09:00,
2013-09-13 01:24:00,58.6,58.0,29.67,SSW,202,0.0,-999.0,98,-99.99,,,0.00,Acu-Link.com,2013-09-13 08:24:00,
2013-09-13 01:39:00,58.8,58.2,29.68,ESE,112,0.0,-999.0,98,-99.99,,,0.00,Acu-Link.com,2013-09-13 08:39:00,
2013-09-13 01:54:00,58.3,57.7,29.67,ENE,67,0.0,-999.0,98,-99.99,,,0.00,Acu-Link.com,2013-09-13 08:54:00,
2013-09-13 02:10:00,58.5,57.9,29.67,SSW,202,0.0,-999.0,98,-99.99,,,0.00,Acu-Link.com,2013-09-13 09:10:00,
2013-09-13 02:25:00,58.5,57.9,29.67,South,180,0.0,-999.0,98,-99.99,,,0.00,Acu-Link.com,2013-09-13 09:25:00,
2013-09-13 02:40:00,57.7,57.1,29.67,NW,315,0.0,-999.0,98,-99.99,,,0.00,Acu-Link.com,2013-09-13 09:40:00,
2013-09-13 02:55:00,57.9,57.3,29.66,SW,225,0.0,-999.0,98,-99.99,,,0.00,Acu-Link.com,2013-09-13 09:55:00,
2013-09-13 03:10:00,57.9,57.3,29.66,WNW,292,0.0,-999.0,98,-99.99,,,0.00,Acu-Link.com,2013-09-13 10:10:00,
2013-09-13 03:25:00,57.6,57.0,29.66,ESE,112,0.0,-999.0,98,-99.99,,,0.00,Acu-Link.com,2013-09-13 10:25:00,
2013-09-13 03:40:00,56.8,56.2,29.66,WNW,292,0.0,-999.0,98,-99.99,,,0.00,Acu-Link.com,2013-09-13 10:40:00,
2013-09-13 03:56:00,56.8,56.2,29.66,SW,225,0.0,-999.0,98,-99.99,,,0.00,Acu-Link.com,2013-09-13 10:56:00,
2013-09-13 04:11:00,56.5,55.9,29.66,East,90,0.0,-999.0,98,-99.99,,,0.00,Acu-Link.com,2013-09-13 11:11:00,
2013-09-13 04:26:00,55.9,55.3,29.66,ESE,112,0.0,-999.0,98,-99.99,,,0.00,Acu-Link.com,2013-09-13 11:26:00,
2013-09-13 04:41:00,55.9,55.3,29.66,South,180,0.0,-999.0,98,-99.99,,,0.00,Acu-Link.com,2013-09-13 11:41:00,
2013-09-13 04:56:00,55.6,55.0,29.66,South,180,0.0,-999.0,98,-99.99,,,0.00,Acu-Link.com,2013-09-13 11:56:00,
2013-09-13 05:11:00,55.4,54.8,29.66,South,180,0.0,-999.0,98,-99.99,,,0.00,Acu-Link.com,2013-09-13 12:11:00,
2013-09-13 05:26:00,55.2,54.6,29.67,South,180,0.0,-999.0,98,-99.99,,,0.00,Acu-Link.com,2013-09-13 12:26:00,
2013-09-13 05:41:00,54.7,54.1,29.66,East,90,0.0,-999.0,98,-99.99,,,0.00,Acu-Link.com,2013-09-13 12:41:00,
2013-09-13 05:56:00,54.7,54.1,29.66,South,180,0.0,-999.0,98,-99.99,,,0.00,Acu-Link.com,2013-09-13 12:56:00,
2013-09-13 06:12:00,54.3,53.7,29.66,SSW,202,0.0,-999.0,98,-99.99,,,0.00,Acu-Link.com,2013-09-13 13:12:00,
2013-09-13 06:27:00,54.0,53.4,29.66,East,90,0.0,-999.0,98,-99.99,,,0.00,Acu-Link.com,2013-09-13 13:27:00,
2013-09-13 06:42:00,54.1,53.5,29.67,WSW,247,0.0,-999.0,98,-99.99,,,0.00,Acu-Link.com,2013-09-13 13:42:00,
2013-09-13 06:57:00,54.3,53.7,29.67,SW,225,0.0,-999.0,98,-99.99,,,0.00,Acu-Link.com,2013-09-13 13:57:00,
2013-09-13 07:12:00,54.7,54.1,29.67,SW,225,0.0,-999.0,98,-99.99,,,0.00,Acu-Link.com,2013-09-13 14:12:00,
2013-09-13 07:27:00,55.4,54.8,29.67,WSW,247,0.0,-999.0,98,-99.99,,,0.00,Acu-Link.com,2013-09-13 14:27:00,
2013-09-13 07:42:00,56.5,55.9,29.67,WSW,247,0.0,-999.0,98,-99.99,,,0.00,Acu-Link.com,2013-09-13 14:42:00,
2013-09-13 07:57:00,58.3,57.7,29.67,SW,225,0.0,-999.0,98,-99.99,,,0.00,Acu-Link.com,2013-09-13 14:57:00,
2013-09-13 08:12:00,63.1,62.5,29.67,East,90,0.0,-999.0,98,-99.99,,,0.00,Acu-Link.com,2013-09-13 15:12:00,
2013-09-13 08:28:00,69.6,69.0,29.67,NW,315,0.0,-999.0,98,-99.99,,,0.00,Acu-Link.com,2013-09-13 15:28:00,
2013-09-13 08:43:00,75.6,75.0,29.68,WNW,292,0.0,-999.0,98,-99.99,,,0.00,Acu-Link.com,2013-09-13 15:43:00,
2013-09-13 08:58:00,80.1,62.5,29.66,SE,135,0.0,-999.0,55,-99.99,,,0.00,Acu-Link.com,2013-09-13 15:58:00,
2013-09-13 09:13:00,85.3,76.0,29.67,SSW,202,2.2,-999.0,74,-99.99,,,0.00,Acu-Link.com,2013-09-13 16:13:00,
2013-09-13 09:28:00,84.9,-12.6,29.66,SSW,202,1.1,-999.0,2,-99.99,,,0.00,Acu-Link.com,2013-09-13 16:28:00,
2013-09-13 09:43:00,86.4,-25.0,29.66,SW,225,3.7,-999.0,1,-99.99,,,0.00,Acu-Link.com,2013-09-13 16:43:00,
2013-09-13 09:58:00,87.8,-24.2,29.66,WNW,292,1.7,-999.0,1,-99.99,,,0.00,Acu-Link.com,2013-09-13 16:58:00,
2013-09-13 10:13:00,88.9,-23.6,29.65,SSW,202,2.7,-999.0,1,-99.99,,,0.00,Acu-Link.com,2013-09-13 17:13:00,
2013-09-13 10:28:00,90.0,-22.9,29.65,East,90,2.7,-999.0,1,-99.99,,,0.00,Acu-Link.com,2013-09-13 17:28:00,
2013-09-13 10:44:00,87.6,30.7,29.65,SSW,202,2.2,-999.0,13,-99.99,,,0.00,Acu-Link.com,2013-09-13 17:44:00,
2013-09-13 10:59:00,90.0,-22.9,29.65,SE,135,2.2,-999.0,1,-99.99,,,0.00,Acu-Link.com,2013-09-13 17:59:00,
2013-09-13 11:14:00,90.3,-22.7,29.64,West,270,3.2,-999.0,1,-99.99,,,0.00,Acu-Link.com,2013-09-13 18:14:00,
2013-09-13 11:29:00,91.4,87.0,29.63,SSW,202,2.7,-999.0,87,-99.99,,,0.00,Acu-Link.com,2013-09-13 18:29:00,
2013-09-13 11:44:00,90.7,-22.5,29.64,North,0,2.2,-999.0,1,-99.99,,,0.00,Acu-Link.com,2013-09-13 18:44:00,
2013-09-13 11:59:00,90.7,-22.5,29.63,South,180,3.7,-999.0,1,-99.99,,,0.00,Acu-Link.com,2013-09-13 18:59:00,
2013-09-13 12:14:00,90.5,-22.6,29.63,NNE,22,4.2,-999.0,1,-99.99,,,0.00,Acu-Link.com,2013-09-13 19:14:00,
2013-09-13 12:30:00,93.7,60.2,29.61,NNE,22,3.7,-999.0,33,-99.99,,,0.00,Acu-Link.com,2013-09-13 19:30:00,
2013-09-13 12:45:00,92.5,-21.4,29.60,North,0,2.7,-999.0,1,-99.99,,,0.00,Acu-Link.com,2013-09-13 19:45:00,
2013-09-13 13:00:00,93.4,-20.9,29.60,South,180,2.2,-999.0,1,-99.99,,,0.00,Acu-Link.com,2013-09-13 20:00:00,
2013-09-13 13:15:00,91.2,-22.2,29.59,East,90,2.7,-999.0,1,-99.99,,,0.00,Acu-Link.com,2013-09-13 20:15:00,
2013-09-13 13:30:00,91.8,-21.9,29.60,NNW,337,3.7,-999.0,1,-99.99,,,0.00,Acu-Link.com,2013-09-13 20:30:00,
2013-09-13 13:45:00,91.4,-22.1,29.58,West,270,2.2,-999.0,1,-99.99,,,0.00,Acu-Link.com,2013-09-13 20:45:00,
2013-09-13 14:00:00,93.4,-20.9,29.58,SW,225,5.3,-999.0,1,-99.99,,,0.00,Acu-Link.com,2013-09-13 21:00:00,
2013-09-13 14:15:00,91.8,-21.9,29.58,West,270,2.7,-999.0,1,-99.99,,,0.00,Acu-Link.com,2013-09-13 21:15:00,
2013-09-13 14:30:00,91.8,-21.9,29.57,SW,225,7.3,-999.0,1,-99.99,,,0.00,Acu-Link.com,2013-09-13 21:30:00,
2013-09-13 14:46:00,90.5,-22.6,29.56,South,180,7.8,-999.0,1,-99.99,,,0.00,Acu-Link.com,2013-09-13 21:46:00,
2013-09-13 15:01:00,90.5,-22.6,29.57,SW,225,3.7,-999.0,1,-99.99,,,0.00,Acu-Link.com,2013-09-13 22:01:00,
2013-09-13 15:16:00,90.9,-22.4,29.56,West,270,5.3,-999.0,1,-99.99,,,0.00,Acu-Link.com,2013-09-13 22:16:00,
2013-09-13 15:31:00,91.4,90.8,29.56,West,270,5.3,-999.0,98,-99.99,,,0.00,Acu-Link.com,2013-09-13 22:31:00,
2013-09-13 15:46:00,92.8,89.4,29.54,South,180,2.7,-999.0,90,-99.99,,,0.00,Acu-Link.com,2013-09-13 22:46:00,
2013-09-13 16:01:00,92.1,91.4,29.53,SW,225,3.2,-999.0,98,-99.99,,,0.00,Acu-Link.com,2013-09-13 23:01:00,
2013-09-13 16:16:00,92.7,92.0,29.53,WNW,292,3.2,-999.0,98,-99.99,,,0.00,Acu-Link.com,2013-09-13 23:16:00,
2013-09-13 16:31:00,90.3,89.7,29.53,North,0,1.7,-999.0,98,-99.99,,,0.00,Acu-Link.com,2013-09-13 23:31:00,
2013-09-13 16:46:00,88.3,87.7,29.52,NNE,22,2.2,-999.0,98,-99.99,,,0.00,Acu-Link.com,2013-09-13 23:46:00,
2013-09-13 17:02:00,88.5,87.9,29.53,South,180,2.7,-999.0,98,-99.99,,,0.00,Acu-Link.com,2013-09-14 00:02:00,
2013-09-13 17:17:00,88.0,87.4,29.52,West,270,2.7,-999.0,98,-99.99,,,0.00,Acu-Link.com,2013-09-14 00:17:00,
2013-09-13 17:32:00,86.0,85.4,29.53,NNE,22,2.2,-999.0,98,-99.99,,,0.00,Acu-Link.com,2013-09-14 00:32:00,
2013-09-13 17:47:00,86.0,85.4,29.53,SE,135,2.2,-999.0,98,-99.99,,,0.00,Acu-Link.com,2013-09-14 00:47:00,
2013-09-13 18:02:00,85.5,-25.6,29.52,NNE,22,2.7,-999.0,1,-99.99,,,0.00,Acu-Link.com,2013-09-14 01:02:00,
2013-09-13 18:17:00,83.7,-26.6,29.52,SSW,202,1.7,-999.0,1,-99.99,,,0.00,Acu-Link.com,2013-09-14 01:17:00,
2013-09-13 18:33:00,79.7,78.8,29.52,South,180,2.2,-999.0,97,-99.99,,,0.00,Acu-Link.com,2013-09-14 01:33:00,
2013-09-13 18:48:00,77.2,76.6,29.52,WNW,292,1.1,-999.0,98,-99.99,,,0.00,Acu-Link.com,2013-09-14 01:48:00,
2013-09-13 19:03:00,75.0,-5.1,29.52,West,270,2.2,-999.0,4,-99.99,,,0.00,Acu-Link.com,2013-09-14 02:03:00,
2013-09-13 19:18:00,73.0,-33.0,29.51,East,90,0.0,-999.0,1,-99.99,,,0.00,Acu-Link.com,2013-09-14 02:18:00,
2013-09-13 19:33:00,72.3,-33.4,29.51,NNW,337,0.0,-999.0,1,-99.99,,,0.00,Acu-Link.com,2013-09-14 02:33:00,
2013-09-13 19:48:00,70.9,-34.3,29.52,West,270,0.0,-999.0,1,-99.99,,,0.00,Acu-Link.com,2013-09-14 02:48:00,
2013-09-13 20:03:00,70.2,66.8,29.52,SSW,202,0.0,-999.0,89,-99.99,,,0.00,Acu-Link.com,2013-09-14 03:03:00,
2013-09-13 20:18:00,69.3,68.7,29.53,West,270,0.0,-999.0,98,-99.99,,,0.00,Acu-Link.com,2013-09-14 03:18:00,
2013-09-13 20:33:00,68.5,67.9,29.53,ESE,112,0.0,-999.0,98,-99.99,,,0.00,Acu-Link.com,2013-09-14 03:33:00,
2013-09-13 20:49:00,68.4,67.8,29.54,ESE,112,0.0,-999.0,98,-99.99,,,0.00,Acu-Link.com,2013-09-14 03:49:00,
2013-09-13 21:04:00,68.0,67.4,29.53,SSW,202,0.0,-999.0,98,-99.99,,,0.00,Acu-Link.com,2013-09-14 04:04:00,
2013-09-13 21:19:00,67.5,66.9,29.53,ESE,112,0.0,-999.0,98,-99.99,,,0.00,Acu-Link.com,2013-09-14 04:19:00,
2013-09-13 21:34:00,66.9,66.3,29.53,ENE,67,0.0,-999.0,98,-99.99,,,0.00,Acu-Link.com,2013-09-14 04:34:00,
2013-09-13 21:49:00,66.6,66.0,29.54,SSE,157,0.0,-999.0,98,-99.99,,,0.00,Acu-Link.com,2013-09-14 04:49:00,
2013-09-13 22:04:00,66.6,66.0,29.53,South,180,0.0,-999.0,98,-99.99,,,0.00,Acu-Link.com,2013-09-14 05:04:00,
2013-09-13 22:19:00,66.2,65.6,29.54,North,0,0.0,-999.0,98,-99.99,,,0.00,Acu-Link.com,2013-09-14 05:19:00,
2013-09-13 22:34:00,65.7,65.1,29.53,West,270,0.0,-999.0,98,-99.99,,,0.00,Acu-Link.com,2013-09-14 05:34:00,
2013-09-13 22:49:00,65.1,64.5,29.53,SE,135,0.0,-999.0,98,-99.99,,,0.00,Acu-Link.com,2013-09-14 05:49:00,
2013-09-13 23:04:00,65.1,64.5,29.54,SSW,202,0.0,-999.0,98,-99.99,,,0.00,Acu-Link.com,2013-09-14 06:04:00,
2013-09-13 23:20:00,64.9,64.3,29.55,SSE,157,0.0,-999.0,98,-99.99,,,0.00,Acu-Link.com,2013-09-14 06:20:00,
2013-09-13 23:35:00,64.6,64.0,29.55,SSW,202,0.0,-999.0,98,-99.99,,,0.00,Acu-Link.com,2013-09-14 06:35:00,
2013-09-13 23:50:00,63.9,63.3,29.55,East,90,0.0,-999.0,98,-99.99,,,0.00,Acu-Link.com,2013-09-14 06:50:00,